Main page
METAR-TAF:

METAR-TAF

Airports :

Poços de Caldas, Minas Gerais, Brazil

latitude: 21-51S, longitude: 046-34W, elevation: 1260 m

Current weather observation

The report was made 8 hours and 14 minutes ago, at 20:00 UTC
Wind 6 kt from the North
Temperature 19°C
Humidity 100%
Pressure 1017 hPa
Visibility 10 km or more
Scattered clouds at a height of 1000 ft
Overcast at a height of 8000 ft

METAR: SBPC 182000Z 36006KT 9999 SCT010 OVC080 19/19 Q1017

Time: 01:14 (04:14 UTC)


TAF: missing

Weather observations and forecasts of more than 4000 airports (METAR and TAF reports).

The available stations are represented by yellow and red dots on the map.

Hover mouse over dot to see the name of the station.

Then click to see weather observations and forecasts.

To change the map : click on the green buttons with a black cross to zoom in, on the green button with a dash to zoom out, or on the green arrows for adjacent maps.


METAR-TAF: